Location: Ferintosh
(52.7647°N, 112.9692°W)
Time: 12:54:29
(UTC+00:00)

Transit 2A Rocket - Pass Details

Date: 26 May 2024
Orbit: 583 x 910 km, 66.7° (Epoch: 14 June)

Event Time Altitude Azimuth Distance (km) Brightness Sun altitude
Rises 08:55:49 0° 151° (SSE) 3,008 - -13.6°
Exits shadow 08:56:51 - 145° (SE) 2,730 7.5 -13.6°
Reaches altitude 10° 08:59:56 10° 116° (ESE) 2,189 7.3 -13.4°
Maximum altitude 09:01:13 11° 101° (E) 2,153 7.5 -13.3°
Drops below altitude 10° 09:02:33 10° 86° (E) 2,251 7.8 -13.2°
Sets 09:07:00 0° 52° (NE) 3,282 9.4 -13.0°
